This is the latest recevied weather packets stored in our database for station/object KA1JKB. If no packets are shown the sender has not sent any weather packets the latest 10 day(s).
| Time | Temp. | Humidity | Pressure | Rain* | Wind** | Luminosity | Snow |
|---|---|---|---|---|---|---|---|
| 1788105266 | 18.89° C | 99% | 1016.9 hPa | 0 mm | - | 98 W/m² | - |
| 1788104960 | 18.89° C | 99% | 1017 hPa | 0 mm | - | 91 W/m² | - |
| 1788104656 | 18.89° C | 99% | 1017.3 hPa | 1.27 mm | - | 91 W/m² | - |
| 1788104353 | 18.89° C | 99% | 1017 hPa | 1.27 mm | - | 93 W/m² | - |
| 1788104048 | 18.89° C | 99% | 1017.3 hPa | 0 mm | - | 81 W/m² | - |
| 1788103747 | 18.89° C | 99% | 1017.3 hPa | 1.78 mm | - | 75 W/m² | - |
| 1788103443 | 18.89° C | 99% | 1017.3 hPa | 3.05 mm | - | 81 W/m² | - |
| 1788103142 | 18.89° C | 99% | 1017.4 hPa | 1.27 mm | - | 74 W/m² | - |
| 1788102841 | 18.89° C | 99% | 1017.6 hPa | 1.78 mm | - | 60 W/m² | - |
| 1788102536 | 18.89° C | 99% | 1017.6 hPa | 3.05 mm | - | 49 W/m² | - |
| 1788102236 | 18.89° C | 99% | 1017.6 hPa | 3.05 mm | - | 46 W/m² | - |
| 1788101931 | 18.89° C | 99% | 1017.7 hPa | 3.05 mm | - | 49 W/m² | - |
| 1788101625 | 18.89° C | 99% | 1017.9 hPa | 3.05 mm | - | 52 W/m² | - |
| 1788101321 | 18.89° C | 99% | 1018.1 hPa | 1.78 mm | - | 62 W/m² | - |
| 1788101017 | 18.89° C | 99% | 1018.4 hPa | 1.78 mm | - | 72 W/m² | - |
| 1788100712 | 18.89° C | 99% | 1018.3 hPa | 3.05 mm | - | 63 W/m² | - |
| 1788100412 | 18.89° C | 99% | 1018.2 hPa | 1.78 mm | - | 57 W/m² | - |
| 1788100106 | 18.89° C | 99% | 1018.2 hPa | 3.05 mm | - | 62 W/m² | - |
| 1788099801 | 18.89° C | 99% | 1018.3 hPa | 1.27 mm | - | 55 W/m² | - |
| 1788099496 | 18.89° C | 99% | 1018.3 hPa | 0 mm | - | 47 W/m² | - |
| 1788099191 | 18.89° C | 99% | 1017.8 hPa | 1.78 mm | - | 46 W/m² | - |
| 1788098886 | 18.89° C | 99% | 1018.1 hPa | 3.05 mm | - | 63 W/m² | - |
| 1788098581 | 18.89° C | 99% | 1018.4 hPa | 1.78 mm | - | 52 W/m² | - |
| 1788098275 | 18.89° C | 99% | 1018.3 hPa | 0 mm | - | 37 W/m² | - |
| 1788097971 | 18.89° C | 99% | 1018.1 hPa | 1.27 mm | - | 32 W/m² | - |
* Rain latest hour (hover to see other rain measurements)
** Current wind speed in m/s (hover to see current wind gust speed)